TimeCDT,TemperatureF,Dew PointF,Humidity,Sea Level PressureIn,VisibilityMPH,Wind Direction,Wind SpeedMPH,Gust SpeedMPH,PrecipitationIn,Events,Conditions,WindDirDegrees,DateUTC
12:13 AM,44.6,41.0,87,30.00,10.0,ESE,5.8,-,N/A,,Overcast,120,2013-09-23 05:13:00
12:33 AM,44.6,42.8,93,30.00,10.0,ESE,4.6,-,N/A,,Overcast,110,2013-09-23 05:33:00
12:54 AM,44.6,42.8,93,30.00,10.0,ESE,6.9,-,N/A,,Overcast,120,2013-09-23 05:54:00
1:14 AM,44.6,42.8,93,30.00,10.0,ESE,4.6,-,N/A,,Overcast,110,2013-09-23 06:14:00
1:33 AM,44.6,42.8,93,30.00,10.0,ESE,4.6,-,N/A,,Mostly Cloudy,120,2013-09-23 06:33:00
1:53 AM,44.6,41.0,87,30.00,10.0,ESE,4.6,-,N/A,,Scattered Clouds,120,2013-09-23 06:53:00
2:13 AM,44.6,41.0,87,29.99,10.0,ESE,3.5,-,N/A,,Clear,120,2013-09-23 07:13:00
2:33 AM,44.6,41.0,87,29.99,10.0,ESE,3.5,-,N/A,,Scattered Clouds,120,2013-09-23 07:33:00
2:54 AM,42.8,41.0,93,30.00,4.0,SE,4.6,-,N/A,,Mostly Cloudy,140,2013-09-23 07:54:00
3:14 AM,44.6,41.0,87,30.00,4.0,SE,4.6,-,N/A,,Overcast,140,2013-09-23 08:14:00
3:34 AM,44.6,42.8,93,30.01,3.0,SE,4.6,-,N/A,,Overcast,140,2013-09-23 08:34:00
3:53 AM,44.6,42.8,93,30.01,2.0,SE,4.6,-,N/A,,Overcast,140,2013-09-23 08:53:00
4:14 AM,44.6,42.8,93,30.01,7.0,SE,5.8,-,N/A,,Mostly Cloudy,140,2013-09-23 09:14:00
4:33 AM,46.4,42.8,87,30.01,2.5,SE,5.8,-,N/A,,Overcast,140,2013-09-23 09:33:00
4:54 AM,46.4,44.6,93,30.01,0.8,SE,5.8,-,N/A,,Overcast,140,2013-09-23 09:54:00
5:13 AM,46.4,44.6,93,30.01,1.0,SE,4.6,-,N/A,,Overcast,140,2013-09-23 10:13:00
5:33 AM,46.4,44.6,93,30.02,0.5,SE,4.6,-,N/A,Fog,Fog,140,2013-09-23 10:33:00
5:53 AM,46.4,44.6,93,30.01,1.5,SE,4.6,-,N/A,,Overcast,140,2013-09-23 10:53:00
6:14 AM,46.4,44.6,93,30.02,0.5,SE,4.6,-,N/A,Fog,Fog,140,2013-09-23 11:14:00
6:33 AM,46.4,44.6,93,30.03,1.0,SE,4.6,-,N/A,,Overcast,140,2013-09-23 11:33:00
6:53 AM,46.4,42.8,87,30.03,4.0,SE,4.6,-,N/A,,Overcast,140,2013-09-23 11:53:00
7:14 AM,46.4,42.8,87,30.04,7.0,SSE,3.5,-,N/A,,Mostly Cloudy,160,2013-09-23 12:14:00
7:33 AM,46.4,42.8,87,30.04,10.0,SE,3.5,-,N/A,,Scattered Clouds,140,2013-09-23 12:33:00
7:53 AM,46.4,42.8,87,30.05,7.0,SSE,3.5,-,N/A,,Scattered Clouds,150,2013-09-23 12:53:00
8:14 AM,46.4,44.6,93,30.04,5.0,SE,4.6,-,N/A,,Overcast,140,2013-09-23 13:14:00
8:34 AM,48.2,44.6,87,30.05,10.0,SSE,4.6,-,N/A,,Overcast,160,2013-09-23 13:34:00
8:54 AM,48.2,44.6,87,30.05,10.0,SE,4.6,-,N/A,,Overcast,140,2013-09-23 13:54:00
9:14 AM,48.2,44.6,87,30.05,10.0,SSE,8.1,-,N/A,,Overcast,160,2013-09-23 14:14:00
9:33 AM,48.2,44.6,87,30.05,10.0,SSE,8.1,-,N/A,,Overcast,150,2013-09-23 14:33:00
9:54 AM,51.8,44.6,76,30.05,10.0,SE,8.1,-,N/A,,Overcast,140,2013-09-23 14:54:00
10:13 AM,50.0,44.6,82,30.05,10.0,South,5.8,-,N/A,,Mostly Cloudy,170,2013-09-23 15:13:00
10:34 AM,51.8,44.6,76,30.05,10.0,SE,3.5,-,N/A,,Overcast,140,2013-09-23 15:34:00
10:53 AM,51.8,44.6,76,30.05,10.0,SSE,5.8,-,N/A,,Mostly Cloudy,150,2013-09-23 15:53:00
11:13 AM,51.8,44.6,76,30.05,10.0,South,6.9,-,N/A,,Mostly Cloudy,170,2013-09-23 16:13:00
11:33 AM,53.6,44.6,72,30.05,10.0,SSE,6.9,-,N/A,,Mostly Cloudy,150,2013-09-23 16:33:00
11:54 AM,55.4,44.6,67,30.05,10.0,SSE,8.1,-,N/A,,Scattered Clouds,150,2013-09-23 16:54:00
12:13 PM,55.4,44.6,67,30.04,10.0,SE,6.9,-,N/A,,Clear,130,2013-09-23 17:13:00
12:33 PM,55.4,44.6,67,30.04,10.0,SSE,5.8,-,N/A,,Clear,160,2013-09-23 17:33:00
12:54 PM,55.4,44.6,67,30.04,10.0,SE,6.9,-,N/A,,Clear,140,2013-09-23 17:54:00
1:13 PM,55.4,44.6,67,30.04,10.0,SSE,6.9,-,N/A,,Clear,150,2013-09-23 18:13:00
1:33 PM,55.4,44.6,67,30.04,10.0,SE,8.1,-,N/A,,Clear,130,2013-09-23 18:33:00
1:54 PM,55.4,44.6,67,30.04,10.0,SE,6.9,-,N/A,,Clear,130,2013-09-23 18:54:00
2:13 PM,55.4,44.6,67,30.04,10.0,SE,6.9,-,N/A,,Clear,130,2013-09-23 19:13:00
2:34 PM,55.4,44.6,67,30.03,10.0,SE,5.8,-,N/A,,Clear,130,2013-09-23 19:34:00
2:53 PM,55.4,44.6,67,30.03,10.0,South,5.8,-,N/A,,Clear,180,2013-09-23 19:53:00
3:13 PM,55.4,44.6,67,30.02,10.0,SE,5.8,-,N/A,,Clear,140,2013-09-23 20:13:00
3:34 PM,57.2,46.4,67,30.02,10.0,SE,8.1,-,N/A,,Clear,130,2013-09-23 20:34:00
3:53 PM,55.4,46.4,72,30.02,10.0,SE,6.9,-,N/A,,Clear,130,2013-09-23 20:53:00
4:13 PM,57.2,46.4,67,30.02,10.0,ESE,6.9,-,N/A,,Clear,120,2013-09-23 21:13:00
4:34 PM,57.2,46.4,67,30.02,10.0,SSE,3.5,-,N/A,,Clear,150,2013-09-23 21:34:00
4:53 PM,55.4,44.6,67,30.02,10.0,SE,4.6,-,N/A,,Clear,140,2013-09-23 21:53:00
5:14 PM,55.4,44.6,67,30.02,10.0,East,4.6,-,N/A,,Clear,100,2013-09-23 22:14:00
5:34 PM,55.4,44.6,67,30.02,10.0,ESE,5.8,-,N/A,,Clear,110,2013-09-23 22:34:00
5:53 PM,53.6,44.6,72,30.02,10.0,East,6.9,-,N/A,,Clear,100,2013-09-23 22:53:00
6:13 PM,51.8,44.6,76,30.02,10.0,East,4.6,-,N/A,,Clear,90,2013-09-23 23:13:00
6:34 PM,51.8,44.6,76,30.02,10.0,East,5.8,-,N/A,,Clear,80,2013-09-23 23:34:00
6:53 PM,50.0,44.6,82,30.02,10.0,ENE,5.8,-,N/A,,Clear,70,2013-09-23 23:53:00
7:13 PM,48.2,42.8,82,30.01,10.0,ENE,5.8,-,N/A,,Clear,70,2013-09-24 00:13:00
7:34 PM,48.2,42.8,82,30.01,10.0,ENE,5.8,-,N/A,,Clear,70,2013-09-24 00:34:00
7:53 PM,48.2,42.8,82,30.01,10.0,East,5.8,-,N/A,,Clear,90,2013-09-24 00:53:00
8:13 PM,48.2,42.8,82,30.01,10.0,East,4.6,-,N/A,,Clear,80,2013-09-24 01:13:00
8:34 PM,48.2,44.6,87,30.01,10.0,East,4.6,-,N/A,,Clear,90,2013-09-24 01:34:00
8:54 PM,50.0,44.6,82,30.01,10.0,East,5.8,-,N/A,,Clear,100,2013-09-24 01:54:00
9:13 PM,48.2,44.6,87,30.01,10.0,ESE,4.6,-,N/A,,Clear,120,2013-09-24 02:13:00
9:34 PM,48.2,44.6,87,30.01,10.0,East,6.9,-,N/A,,Clear,100,2013-09-24 02:34:00
9:54 PM,50.0,46.4,87,30.01,10.0,ESE,3.5,-,N/A,,Clear,110,2013-09-24 02:54:00
10:13 PM,48.2,44.6,87,30.01,10.0,SE,3.5,-,N/A,,Clear,130,2013-09-24 03:13:00
10:33 PM,48.2,46.4,93,30.01,10.0,SE,5.8,-,N/A,,Clear,130,2013-09-24 03:33:00
10:54 PM,50.0,46.4,87,30.01,10.0,SSE,5.8,-,N/A,,Clear,150,2013-09-24 03:54:00
11:13 PM,48.2,44.6,87,30.01,10.0,SSE,4.6,-,N/A,,Clear,160,2013-09-24 04:13:00
11:34 PM,48.2,44.6,87,30.01,10.0,SSE,5.8,-,N/A,,Clear,160,2013-09-24 04:34:00
11:54 PM,50.0,46.4,87,30.01,10.0,South,6.9,-,N/A,,Clear,170,2013-09-24 04:54:00